Other Surface Observations
Issued by NWS Upton, NY

Home | Current Version | Previous Version | Text Only | Print | Product List | Glossary On
Versions: 1 2 3 4 5 6 7 8 9 10 11 12 13 14 15 16 17 18 19 20 21 22 23 24 25 26 27 28 29 30 31 32 33 34 35 36 37 38 39 40 41 42 43 44 45 46 47 48 49 50
545
SXUS51 KOKX 280357
OSOOKX
New York City Metropolitan Area Weather Roundup
National Weather Service New York NY
1200 AM EDT MON MAY 28 2018

CITY           SKY/WX    TMP DP  RH WIND       PRES   REMARKS
Central Park   CLOUDY    56  51  84 NE8       30.14R
LaGuardia Arpt CLOUDY    57  51  80 NE14      30.11S
Kennedy Intl   CLOUDY    56  53  90 NE9       30.12S
Newark Liberty CLOUDY    58  52  80 NE10      30.11S
Teterboro Arpt CLOUDY    58  51  78 NE9       30.11R
Bronx Bot Gard   N/A     55  50  82 N5        30.14R
Bronx Lehman C   N/A     55  50  82 NE6         N/A
Queens College   N/A     55  50  82 NE9         N/A
Breezy Point     N/A     55 N/A N/A NE10G16     N/A
Brooklyn Coll    N/A     55  52  88 NE8         N/A
Staten Island    N/A     55  52  88 E9          N/A

>>>>>>>>>>>>>>>>>>>>>>>>>>>>>>>>> KEY <<<<<<<<<<<<<<<<<<<<<<<<<<<<<<<
> SKY/WX - Sky Condition/Present    : R : WCI - Wind Chill Index    <
>          Weather                  : E : VSB - Visibility in Miles <
> TMP    - Temperature in Deg F     : M : HX  - Heat Index          <
> DP     - Dew Point Temperature    : A : TC  - Temperature in      <
> RH     - Relative Humidity        : R :       Celsius             <
> WIND   - Direction/Speed (mph)    : K : VRB - Variable Wind Dir   <
> PRES   - Pressure (in Hg)         : S :                           <
>>>>>>>>>>>>>>>>>>>>>>>>>>>>>>>>> KEY <<<<<<<<<<<<<<<<<<<<<<<<<<<<<<<




USA.gov is the U.S. government's official web portal to all federal, state and local government web resources and services.